Orbital Elements at Epoch 2459000.5 (2020-May-31.0) TDB
Reference: JPL 17 (heliocentric ecliptic J2000)
Element | Value | Uncertainty (1-sigma) | Units |
e | .1110333034722585 | 1.8727e-07 | |
a | 2.549111484491204 | 1.5165e-08 | au |
q | 2.266075215449073 | 4.8743e-07 | au |
i | 1.888791815260698 | 7.1687e-06 | deg |
node | 322.1128094816472 | 0.00010727 | deg |
peri | 192.0699242021124 | 0.00011165 | deg |
M | 90.77958737434651 | 2.1608e-05 | deg |
tp | 2458625.641489751684 (2019-May-22.14148975) | 8.9174e-05 | TDB |
period | 1486.557359342318 4.07 | 1.3266e-05 3.632e-08 | d yr |
n | .2421702719626447 | 2.1611e-09 | deg/d |
Q | 2.832147753533335 | 1.6849e-08 | au |
|
| | Orbit Determination Parameters
Additional Information
|